Location: Saint John
(45.2733°N, 66.0633°W)
Time: 19:32:07
(UTC-03:00)

BlueWalker 3 - Visible Passes

Search period start: 27 May 2024 00:00
Search period end: 06 June 2024 00:00
Orbit: 481 x 494 km, 53.2° (Epoch: 26 May)

Date Brightness Start Highest point End Pass type
(mag) Time Alt. Az. Time Alt. Az. Time Alt. Az.
30 May 4.3 04:48:09 10° SSE 04:50:18 15° SE 04:52:27 10° E visible
31 May 4.3 04:22:56 10° SSE 04:24:55 14° SE 04:26:54 10° E visible
01 Jun 4.3 03:57:45 10° SSE 03:59:31 13° SE 04:01:16 10° E visible
02 Jun 4.2 03:32:59 11° SE 03:34:07 12° SE 03:35:37 10° ESE visible
03 Jun 4.3 03:08:24 11° SE 03:08:41 11° SE 03:09:52 10° ESE visible
03 Jun 1.9 04:42:46 11° SW 04:46:15 72° SE 04:50:00 10° ENE visible
04 Jun 4.4 02:43:45 10° ESE 02:43:45 10° ESE 02:43:56 10° ESE visible
04 Jun 1.9 04:18:07 18° SW 04:20:48 68° SE 04:24:32 10° ENE visible
05 Jun 1.9 03:53:24 26° SW 03:55:20 64° SE 03:59:03 10° ENE visible
